Regional Weather Roundup
Issued by NWS Newport/Morehead, NC

Current Version | Previous Version | Text Only | Print | Product List | Glossary On
Versions: 1 2 3 4 5 6 7 8 9 10 11 12 13 14 15 16 17 18 19 20 21 22 23 24 25 26 27 28 29 30 31 32 33 34 35 36 37 38 39 40 41 42 43 44 45 46 47 48 49 50
000
ASUS42 KMHX 050824
RWRMHX
WEATHER ROUNDUP FOR EASTERN NORTH CAROLINA
NATIONAL WEATHER SERVICE NEWPORT/MOREHEAD CITY NC
300 AM EST MON DEC 05 2016

NOTE: "FAIR" INDICATES FEW OR NO CLOUDS BELOW 12,000 FEET
WITH NO SIGNIFICANT WEATHER AND/OR OBSTRUCTIONS TO VISIBILITY

NCZ015>017-031-032-045>047-102-103-050900-
NORTH COAST

CITY           SKY/WX    TMP DP  RH WIND       PRES   REMARKS
EDENTON        RAIN      49  47  93 CALM      30.01F
ELIZABETH CITY LGT RAIN  46  45  96 E5        30.01F
KITTY HAWK     RAIN      50  50 100 E7        29.99F
MANTEO         DRIZZLE   50  50  99 E7        30.01F

$$

NCZ045>047-081-094-103-104-050900-
CENTRAL COAST

CITY           SKY/WX    TMP DP  RH WIND       PRES   REMARKS
FRISCO         HVY RAIN  63  61  93 S15G23    29.98F FOG

$$

NCZ095-097-098-100-101-050900-
SOUTHERN COAST

CITY           SKY/WX    TMP DP  RH WIND       PRES   REMARKS
BEAUFORT       LGT RAIN  63  63 100 SW16      29.97F FOG
CEDAR ISLAND   NOT AVBL
JACKSONVILLE   RAIN      50  50 100 CALM      29.96F FOG
PINEY ISLAND   NOT AVBL
WILMINGTON     LGT RAIN  61  61 100 S6        29.94F


$$

NCZ011>013-027>030-043-044-078>080-089-090>093-098-050900-
COASTAL PLAIN

CITY           SKY/WX    TMP DP  RH WIND       PRES   REMARKS
AHOSKIE        HVY RAIN  43  42  97 N3        30.01F
CLINTON        RAIN      47  47 100 CALM      29.97F
ELIZABETHTOWN  HVY RAIN  46  46 100 CALM      29.95F
GOLDSBORO      LGT RAIN  46  46 100 N3        29.96F FOG
GREENVILLE     LGT RAIN  45  45 100 E3        30.00F
HAVELOCK       LGT RAIN  54  53  97 NE3       29.99F
KENANSVILLE    LGT RAIN  46  46 100 CALM      29.96F FOG
KINSTON        LGT RAIN  47  47  99 CALM      29.98F
NEW BERN       LGT RAIN  49  48  97 CALM      29.99F
RICHLANDS      LGT RAIN  48  48 100 NE3       29.97F FOG
ROCKY MOUNT    LGT RAIN  44  44 100 N6        30.01S FOG
WASHINGTON     LGT RAIN  46  45  97 E3        30.00F
WHITEVILLE     LGT RAIN  49  49  97 NE3       29.92F

$$

AMZ130-135-150-152-154-156-158-170-250-252-270-ANZ085-086-088-633-658-670-050900-
MARINE OBSERVATIONS

STATION/POSITION TIME  TEMP    WIND        PRES    WAVE   SWELL
                       AIR SEA DIR/SP/G            HT/PER HT/PER
                 (UTC) (F)     (DEG/KT/KT) (MB)    (FT/S) (FT/S)
CHESAPEAKE LIGHT NOT AVBL
64 E VA BEACH    0750   53 60  120/ 12/ 14 1016.8    2/ 8   2/ 8
DUCK             0800   51 54  110/ 12/ 15 1015.7
2 E DUCK         NOT AVBL
OREGON INLET     0800          100/  9/ 12 1015.7
13E OREGON INLT  NOT AVBL
HATTERAS CG      0800   64 58  180/  8/ 16 1015.0
DIAMOND BUOY     0750   67 74  180/ 21/ 27 1015.4    4/ 8   3/ 8
CAPE LOOKOUT     0800   63     210/  9/ 11 1014.9
BEAUFORT LAB     0800   62 55  210/  8/ 13 1013.9
30 SE NEW RVR IN 0808   67 74  210/ 23/ 29 1014.4
30 SE NEW RVR IN NOT AVBL
27 SE WRIGHTSVLE 0808   70 68  190/ 21/ 29 1013.4
5 SE WRIGHTSVLE  0808   61 63  180/ 10/ 14 1013.3
225 S CAPE HAT   0750   69 73  170/ 16/ 19 1018.7    4/10   3/10
41 SE CHARLESTON 0750   74 74  190/ 23/ 29 1013.8    7/ 6   2/11

$$



USA.gov is the U.S. government's official web portal to all federal, state and local government web resources and services.